User: anonymous   Login
Location: Unspecified
(0.0000°N, 0.0000°E)
Time: 15:46:06
(UTC+00:00)
Language:

KMS 4 - Orbit

View from above orbital plane
View from above orbital plane
View from above satellite
View from above satellite

Ground track
Ground track

The orbit data is extracted from the following two-line orbital elements,

1 41332U 16009A   19078.81117508  .00001921  00000-0  62470-4 0  9991
2 41332  97.3736 147.5805 0021538 258.7412 208.5177 15.32942617173896
Epoch (UTC): 19 March 2019 19:28:05
Eccentricity: 0.0021538
inclination: 97.3736°
perigee height: 452 km
apogee height: 482 km
right ascension of ascending node: 147.5805°
argument of perigee: 258.7412°
revolutions per day: 15.32942617
mean anomaly at epoch: 208.5177°
orbit number at epoch: 17389

The dashed part of the orbit path shows where the satellite is in the earth's shadow,  

DLR